www.pogodaiklimat.ru

Погода и климат >> Архив погоды >> Антарктида >> Halley


ПОГОДА в Halley

  • Прогноз погоды в Halley
  • Монитор погоды в Halley
  • Климат города

АРХИВ ПОГОДЫ в Halley

Время (UTC), дата Ветер
(напр.,м/с)
 
Видим.   Явления Облачность Т
(С)
Тd
(С)
f
(%)
Тe
(С)
Тes
(С)
Комфортность P
(гПа)
Po
(гПа)
Тmin
(С)
Tmax
(С)
R
(мм)
R24
(мм)
S
(см)
19 12.08 ЮЗ 7 н/о н/о -20.9 -22.7 85 -33 -33 опасность
обморожения
980.8 976.8
20 12.08 ЮЗ 7 н/о н/о -20.3 -22.1 85 -32 -32 опасность
обморожения
982.1 978.1
22 12.08 ЮЗ 4 н/о н/о -24.7 -27.0 81 -35 -35 опасность
обморожения
985.7 981.7
23 12.08 ЮЗ 3 н/о н/о -27.5 -30.2 78 -37 -37 опасность
обморожения
987.5 983.4
01 13.08 ЮЗ 2 н/о н/о -31.1 -34.1 75 -37 -37 опасность
обморожения
989.9 985.7
03 13.08 З 3 н/о н/о -32.4 -35.6 73 -42 -42 опасность
обморожения
992.3 988.1
04 13.08 ЮЗ 2 н/о н/о -33.7 -36.9 73 -40 -40 опасность
обморожения
993.2 989.0
05 13.08 ЮЗ 2 н/о н/о -35.0 -38.4 71 -42 -42 опасность
обморожения
994.8 990.5
06 13.08 ЮЗ 2 н/о н/о -34.0 -37.3 72 -41 -41 опасность
обморожения
995.3 991.1
09 13.08 н/о н/о -35.2 -38.7 70 997.4 993.1
11 13.08 З 2 н/о н/о -34.9 -38.3 71 -42 -42 опасность
обморожения
998.9 994.6
10 13.08 З 2 н/о н/о -36.3 -39.9 69 -45 -45 опасность
обморожения
998.2 993.9
14 13.08 З 1 н/о н/о -31.9 -35.1 73 -36 -36 опасность
обморожения
999.8 995.6
15 13.08 н/о н/о -31.7 -34.7 75 999.9 995.7
16 13.08 З 2 н/о н/о -31.1 -34.2 74 -39 -39 опасность
обморожения
1000.4 996.2
17 13.08 З 2 н/о н/о -31.8 -34.9 74 -38 -38 опасность
обморожения
1000.4 996.2
19 13.08 З 2 н/о н/о -31.8 -35.0 73 -40 -40 опасность
обморожения
1000.9 996.7
21 13.08 З 3 н/о н/о -30.7 -33.7 75 -40 -40 опасность
обморожения
1001.1 996.9
22 13.08 З 2 н/о н/о -31.6 -34.8 73 -39 -39 опасность
обморожения
1000.8 996.6
00 14.08 З 4 н/о н/о -27.2 -29.8 78 -37 -37 опасность
обморожения
1000.5 996.3
02 14.08 З 3 н/о н/о -24.6 -26.9 81 -33 -33 опасность
обморожения
1000.0 995.9
03 14.08 З 3 н/о н/о -24.4 -26.7 81 -32 -32 опасность
обморожения
999.4 995.3
05 14.08 СЗ 3 н/о н/о -22.7 -24.7 84 -30 -30 997.7 993.6
06 14.08 СЗ 4 н/о н/о -21.2 -23.2 84 -30 -30 996.3 992.3
07 14.08 СЗ 4 н/о н/о -20.4 -22.2 85 -29 -29 995.8 991.8
08 14.08 СЗ 4 н/о н/о -19.4 -21.1 86 -28 -28 994.6 990.6
12 14.08 В 2 н/о н/о -20.8 -22.6 85 -26 -26 991.2 987.2
13 14.08 В 2 н/о н/о -20.6 -22.5 85 -25 -25 990.1 986.1
14 14.08 В 2 н/о н/о -20.8 -22.7 85 -27 -27 989.7 985.7
15 14.08 В 2 н/о н/о -20.8 -22.7 85 -27 -27 989.7 985.7
17 14.08 Ю 1 н/о н/о -25.2 -27.4 82 -29 -29 988.7 984.6
19 14.08 ЮЗ 4 н/о н/о -37.8 -41.4 69 -50 -50 опасность
обморожения
989.3 985.0
20 14.08 Ю 2 н/о н/о -34.8 -38.1 72 -42 -42 опасность
обморожения
989.7 985.5
22 14.08 З 3 н/о н/о -33.2 -36.4 73 -44 -44 опасность
обморожения
990.5 986.3
00 15.08 З 4 н/о н/о -33.5 -36.8 72 -46 -46 опасность
обморожения
990.7 986.5
01 15.08 ЮЗ 5 н/о н/о -30.6 -33.5 76 -43 -43 опасность
обморожения
990.4 986.2
03 15.08 ЮЗ 4 н/о н/о -31.2 -34.3 74 -42 -42 опасность
обморожения
991.4 987.2
05 15.08 ЮЗ 4 н/о н/о -29.8 -32.7 76 -41 -41 опасность
обморожения
991.9 987.7
06 15.08 ЮЗ 5 н/о н/о -30.8 -33.7 76 -44 -44 опасность
обморожения
992.0 987.8
08 15.08 З 5 н/о н/о -29.7 -32.5 77 -42 -42 опасность
обморожения
992.4 988.2
11 15.08 ЮЗ 4 н/о н/о -29.6 -32.4 77 -41 -41 опасность
обморожения
992.4 988.2
10 15.08 ЮЗ 5 н/о н/о -26.1 -28.5 80 -37 -37 опасность
обморожения
992.3 988.2
12 15.08 ЮЗ 3 н/о н/о -31.0 -34.0 75 -40 -40 опасность
обморожения
992.2 988.0
13 15.08 З 3 н/о н/о -33.7 -37.0 72 -44 -44 опасность
обморожения
993.0 988.8
15 15.08 ЮЗ 2 н/о н/о -33.5 -36.7 73 -40 -40 опасность
обморожения
994.1 989.9
17 15.08 З 2 н/о н/о -35.0 -38.5 70 -42 -42 опасность
обморожения
995.0 990.7
20 15.08 н/о н/о -34.5 -38.0 70 996.6 992.3
22 15.08 В 4 н/о н/о -32.5 -35.6 74 -44 -44 опасность
обморожения
997.0 992.8
23 15.08 В 5 н/о н/о -27.9 -30.6 78 -39 -39 опасность
обморожения
997.5 993.3
01 16.08 СВ 4 н/о н/о -30.9 -33.9 75 -42 -42 опасность
обморожения
998.5 994.3
03 16.08 В 3 н/о н/о -36.2 -39.8 69 -47 -47 опасность
обморожения
999.7 995.4
04 16.08 ЮВ 3 н/о н/о -39.1 -43.1 66 -51 -51 опасность
обморожения
995.6
06 16.08 В 3 н/о н/о -37.2 -41.0 68 -48 -48 опасность
обморожения
1000.2 995.9
08 16.08 ЮВ 3 н/о н/о -40.8 -44.9 64 -53 -53 опасность
обморожения
1000.8 996.4
09 16.08 В 3 н/о н/о -41.1 -45.4 63 -52 -52 опасность
обморожения
1000.7 996.3
11 16.08 н/о н/о -41.7 -45.9 63 1000.6 996.2
13 16.08 н/о н/о -39.4 -43.4 66 999.9 995.5
14 16.08 н/о н/о -39.8 -44.0 64 999.5 995.1
15 16.08 СВ 2 н/о н/о -41.7 -46.1 62 -51 -51 опасность
обморожения
999.3 994.9
16 16.08 н/о н/о -38.9 -42.8 66 998.9 994.5
18 16.08 З 1 н/о н/о -43.7 -48.1 61 -49 -49 опасность
обморожения
998.1 993.7
20 16.08 З 2 н/о н/о -43.5 -48.0 61 -52 -52 опасность
обморожения
996.9 992.5
21 16.08 З 2 н/о н/о -42.7 -47.2 61 -51 -51 опасность
обморожения
996.7 992.3
23 16.08 н/о н/о -39.1 -43.6 62 996.3 992.0
00 17.08 С 2 н/о н/о -41.6 -46.1 61 -51 -51 опасность
обморожения
996.9 992.5
02 17.08 СВ 2 н/о н/о -40.6 -44.8 64 -48 -48 опасность
обморожения
996.9 992.5
01 17.08 СВ 3 н/о н/о -39.4 -43.5 65 -50 -50 опасность
обморожения
996.7 992.3
04 17.08 н/о н/о -43.7 -48.2 61 996.4 992.0
06 17.08 ЮВ 2 н/о н/о -46.0 -50.9 57 -54 -54 опасность
обморожения
995.9 991.4
07 17.08 ЮЗ 1 н/о н/о -48.1 -53.0 57 -54 -54 опасность
обморожения
996.1 991.6
09 17.08 ЮЗ 1 н/о н/о -43.0 -47.6 60 -49 -49 опасность
обморожения
995.1 990.7
11 17.08 ЮЗ 1 н/о н/о -39.1 -43.3 64 -44 -44 опасность
обморожения
994.2 989.9
10 17.08 ЮЗ 2 н/о н/о -40.9 -45.2 63 -49 -49 опасность
обморожения
994.6 990.2
12 17.08 ЮЗ 1 н/о н/о -34.6 -38.2 70 -39 -39 опасность
обморожения
993.8 989.5
13 17.08 ЮЗ 1 н/о н/о -36.6 -40.4 68 -42 -42 опасность
обморожения
993.1 988.8
14 17.08 Ю 3 н/о н/о -31.9 -35.1 73 -42 -42 опасность
обморожения
992.0 987.8
15 17.08 З 4 н/о н/о -25.8 -28.4 79 -36 -36 опасность
обморожения
991.5 987.4
17 17.08 ЮВ 1 н/о н/о -22.8 -25.0 82 -26 -26 990.7 986.7
16 17.08 ЮЗ 4 н/о н/о -27.0 -29.6 78 -38 -38 опасность
обморожения
991.0 986.9
18 17.08 ЮЗ 3 н/о н/о -18.3 -20.0 86 -25 -25 990.5 986.5
21 17.08 СВ 4 н/о н/о -30.5 -33.7 73 -42 -42 опасность
обморожения
992.1 987.9
22 17.08 С 3 н/о н/о -37.5 -41.1 69 -49 -49 опасность
обморожения
992.7 988.4
23 17.08 З 2 н/о н/о -37.9 -41.6 68 -47 -47 опасность
обморожения
993.0 988.7
02 18.08 З 2 н/о н/о -40.5 -44.5 65 -50 -50 опасность
обморожения
992.1 987.7
03 18.08 З 2 н/о н/о -39.7 -43.7 65 -49 -49 опасность
обморожения
991.7 987.4
04 18.08 З 2 н/о н/о -38.3 -42.2 67 -47 -47 опасность
обморожения
991.1 986.8
05 18.08 ЮЗ 3 н/о н/о -37.5 -41.3 67 -48 -48 опасность
обморожения
990.5 986.2
08 18.08 ЮЗ 2 н/о н/о -33.0 -36.2 73 -40 -40 опасность
обморожения
989.3 985.1
09 18.08 Ю 2 н/о н/о -30.5 -33.5 75 -38 -38 опасность
обморожения
989.1 984.9
11 18.08 З 2 н/о н/о -33.4 -36.6 73 -42 -42 опасность
обморожения
989.1 984.9
13 18.08 ЮВ 3 н/о н/о -26.9 -29.5 79 -36 -36 опасность
обморожения
989.0 984.9
14 18.08 Ю 3 н/о н/о -29.1 -31.9 77 -38 -38 опасность
обморожения
989.0 984.9
15 18.08 ЮЗ 2 н/о н/о -30.8 -33.8 75 -37 -37 опасность
обморожения
988.9 984.7
16 18.08 ЮЗ 2 н/о н/о -26.8 -29.3 79 -34 -34 опасность
обморожения
987.8 983.7
18 18.08 Ю 3 н/о н/о -30.2 -33.1 76 -39 -39 опасность
обморожения
987.6 983.5
20 18.08 З 2 н/о н/о -32.4 -35.5 74 -40 -40 опасность
обморожения
987.2 983.0
19 18.08 З 2 н/о н/о -31.0 -34.1 74 -39 -39 опасность
обморожения
987.5 983.3
21 18.08 З 2 н/о н/о -33.9 -37.2 72 -41 -41 опасность
обморожения
986.8 982.6
23 18.08 З 2 н/о н/о -34.4 -37.7 72 -43 -43 опасность
обморожения
986.1 981.9
00 19.08 ЮЗ 2 н/о н/о -35.4 -38.9 70 -44 -44 опасность
обморожения
985.7 981.5
01 19.08 З 2 н/о н/о -34.9 -38.4 70 -43 -43 опасность
обморожения
985.5 981.3
02 19.08 З 2 н/о н/о -35.1 -38.6 70 -44 -44 опасность
обморожения
985.2 981.0
04 19.08 н/о н/о -35.7 -39.3 69 984.9 980.7
06 19.08 З 2 н/о н/о -35.1 -38.6 70 -44 -44 опасность
обморожения
984.2 980.0
07 19.08 З 3 н/о н/о -34.8 -38.3 70 -44 -44 опасность
обморожения
984.4 980.2
09 19.08 С 3 н/о н/о -35.3 -39.0 69 -46 -46 опасность
обморожения
983.8 979.6
12 19.08 З 3 н/о н/о -31.0 -34.0 75 -41 -41 опасность
обморожения
983.6 979.5
14 19.08 З 3 н/о н/о -30.6 -33.6 75 -40 -40 опасность
обморожения
983.7 979.6
17 19.08 З 4 н/о н/о -29.4 -32.3 76 -41 -41 опасность
обморожения
984.0 979.9

 

Местоположение метеостанции Halley (Антарктида): широта -75.50 долгота -26.65 высота над уровнем моря 30 м.

В архиве по умолчанию представлена погода в Halley за последнюю неделю. Архивные данные за месяц целиком и за предыдущие месяцы, начиная с января 2011 года, Вы можете получить, выбрав интересующий диапазон дат из раскрывающегося списка и нажав кнопку "Ввод!".

Внимание! Время в таблицах - всемирное. Для получения местного времени необходимо прибавить поправку, которая в Halley равна 0 ч.

Смотрите также архив погоды в соседних городах и на ближайших метеорологических станциях:

Погода в Base Belgrano Ii (Антарктида) (332 км)
Погода в Nordenskiold Base (Антарктида) (482 км)
Погода в Kohnen Ep9 (Антарктида) (750 км)
Погода в Neumayer (Антарктида) (797 км)
Погода в S.a.n.a.e. aws (Антарктида) (851 км)
Погода в Troll (Антарктида) (970 км)
Погода в Butler Island (Антарктида) (1082 км)
Погода в Sky Blue (Антарктида) (1250 км)
Погода в Maitri (Антарктида) (1317 км)
Погода в Novolazarevskaja (Антарктида) (1318 км)

Пояснения к столбцам:

Ветер - указаны скорость ветра в м/с - средняя за 10 мин, порывы в срок и между сроками (в фигурных скобках) и направление, откуда дует ветер: С - северный, СВ - северо-восточный, В - восточный, ЮВ - юго-восточный, Ю - южный, ЮЗ - юго-западный, З - западный, СЗ - северо-западный.
Видимость - горизонтальная дальность видимости в метрах или километрах. При видимости от 1 до 10 км при отсутствии осадков обычно наблюдается дымка, при ухудшении видимости до 1 км и менее - туман. В сухую погоду видимость может ухудшаться дымом, пылью или мглою.
Явления - указаны атмосферные явления, наблюдавшиеся в срок или в последний час перед сроком; фигурными скобками обозначены явления, наблюдавшиеся между сроками (за 1-3 часа до срока); квадратными скобками обозначены град или гололедные отложения с указанием их диаметра в мм.
Облачность - указаны через наклонную черту общая и нижняя облачность в баллах и высота нижней границы облаков в метрах; квадратными скобками обозначены формы облаков: Ci - перистые, Cs - перисто-слоистые, Cc - перисто-кучевые, Ac - высококучевые, As - высокослоистые, Sc - слоисто-кучевые, Ns - слоисто-дождевые, Cu - кучевые, Cb - кучево-дождевые. Подробнее классификацию облаков см. в Атласе облаков (PDF).
T - Температура воздуха - температура, измеренная на высоте 2 м над землей.
Td - Температура точки росы - температура, при понижении до которой содержащийся в воздухе водяной пар достигнет насыщения.
f - Относительная влажность воздуха - влажноcть воздуха, измеренная на высоте 2 м над землей.
Te - Эффективная температура - температура, которую ощущает одетый по сезону человек в тени. Характеристика душности погоды. При расчете учитывается влияние влажности воздуха и скорости ветра на теплоощущения человека.
Tes - Эффективная температура на солнце - температура, которую ощущает человек, с поправкой на солнечный нагрев. Характеристика знойности погоды. Зависит от высоты солнца над горизонтом, облачности и скорости ветра. Ночью, в пасмурную погоду, а также при ветре 12 м/с и более поправка равна нулю.
P - Атмосферное давление - приведенное к уровню моря атмосферное давление.
Po - Атмосферное давление - измеренное на уровне метеостанции атмосферное давление.
Tmin - Минимальная температура - минимум температуры воздуха на высоте 2 м над землей.
Tmax - Максимальная температура - максимум температуры воздуха на высоте 2 м над землей.
R - Количество осадков - Количество выпавших осадков за период времени, мм. При наведении курсора мыши на число - период времени, за который выпало указанное количество осадков.
R24 - Количество осадков - Количество выпавших осадков за 24 часа, мм.
S - Снежный покров - Высота снежного покрова, см. При наведении курсора мыши на число - состояние снежного покрова и степень покрытия местности в баллах.